Main page
METAR-TAF:

METAR-TAF

Airports :

São Gabriel da Cachoeira Airport

São Gabriel da Cachoeira, Amazonas, Brazil

latitude: 00-08S, longitude: 067-05W, elevation: 90 m

Current weather observation

The report was made 27 minutes ago, at 14:00 UTC
Wind 2 kt from the West/Southwest
Temperature 29°C
Humidity 79%
Pressure 1010 hPa
Visibility 10 km or more
Few clouds at a height of 700 ft

METAR: SBUA 141400Z 24002KT 9999 FEW007 29/25 Q1010

Time: 10:27 (14:27 UTC)


TAF: missing

Weather observations and forecasts of more than 4000 airports (METAR and TAF reports).

The available stations are represented by yellow and red dots on the map.

Hover mouse over dot to see the name of the station.

Then click to see weather observations and forecasts.

To change the map : click on the green buttons with a black cross to zoom in, on the green button with a dash to zoom out, or on the green arrows for adjacent maps.


METAR-TAF: